When you browse on this site, cookies collect data to enhance your experience and personalize the content and advertising you see.
Visit our Privacy Policy to learn more. By continuing to use the site, you agree to this use of cookies and data.
  • In Romania
  • List of Countries
  • For 7 days
  • Water Temperature
  • Weather Map
  • Weather Widgets
  • user-avatar
    Login

    Hourly Weather La Palma

    Today, 28 May, Thursday

    Time Temperature Precipitation Wind Pressure Humidity
    00:00 +26°C° 0.1 mm 1 mps 758 mmHg 95%
    01:00 +26°C° 0.1 mm 1 mps 758 mmHg 96%
    02:00 +26°C° 0 mm 1 mps 758 mmHg 96%
    03:00 +25°C° 0 mm 1 mps 758 mmHg 97%
    04:00 +25°C° 0 mm 1 mps 758 mmHg 97%
    05:00 +25°C° 0 mm 1 mps 758 mmHg 96%
    06:00 +25°C° 0 mm 1 mps 758 mmHg 96%
    07:00 +26°C° 0 mm 1 mps 758 mmHg 95%
    08:00 +28°C° 0 mm 1 mps 759 mmHg 85%
    09:00 +30°C° 0 mm 1 mps 759 mmHg 76%
    10:00 +30°C° 0 mm 0 mps 759 mmHg 66%
    11:00 +33°C° 0 mm 1 mps 759 mmHg 62%
    12:00 +34°C° 0 mm 1 mps 758 mmHg 59%
    13:00 +36°C° 0 mm 2 mps 758 mmHg 55%
    14:00 +35°C° 0.4 mm 2 mps 757 mmHg 61%
    15:00 +33°C° 0.4 mm 3 mps 757 mmHg 68%
    16:00 +31°C° 0.4 mm 3 mps 757 mmHg 74%
    17:00 +30°C° 0.3 mm 3 mps 757 mmHg 80%
    18:00 +29°C° 0.3 mm 2 mps 758 mmHg 86%
    19:00 +27°C° 0.3 mm 2 mps 758 mmHg 93%
    20:00 +27°C° 0.6 mm 2 mps 758 mmHg 93%
    21:00 +27°C° 0.6 mm 1 mps 759 mmHg 94%
    22:00 +26°C° 0.6 mm 1 mps 759 mmHg 95%
    23:00 +26°C° 0 mm 1 mps 759 mmHg 95%

    Tomorrow, 29 May, Friday

    Time Temperature Precipitation Wind Pressure Humidity
    00:00 +26°C° 0 mm 1 mps 759 mmHg 96%
    01:00 +26°C° 0 mm 1 mps 758 mmHg 96%
    02:00 +26°C° 1.1 mm 1 mps 758 mmHg 97%
    03:00 +26°C° 1.1 mm 1 mps 758 mmHg 97%
    04:00 +25°C° 1.1 mm 1 mps 757 mmHg 98%
    05:00 +26°C° 1.2 mm 1 mps 758 mmHg 97%
    06:00 +26°C° 1.2 mm 1 mps 758 mmHg 97%
    07:00 +26°C° 1.2 mm 1 mps 759 mmHg 96%
    08:00 +27°C° 0.8 mm 1 mps 759 mmHg 92%
    09:00 +27°C° 0.8 mm 0 mps 759 mmHg 87%
    10:00 +28°C° 0.8 mm 0 mps 759 mmHg 82%
    11:00 +30°C° 1.1 mm 1 mps 759 mmHg 81%
    12:00 +31°C° 1.1 mm 2 mps 759 mmHg 80%
    13:00 +31°C° 1.1 mm 3 mps 758 mmHg 78%
    14:00 +30°C° 0.8 mm 3 mps 758 mmHg 82%
    15:00 +29°C° 0.8 mm 3 mps 757 mmHg 86%
    16:00 +28°C° 0.8 mm 2 mps 757 mmHg 89%
    17:00 +27°C° 0.3 mm 2 mps 757 mmHg 91%
    18:00 +27°C° 0.3 mm 2 mps 758 mmHg 93%
    19:00 +26°C° 0.3 mm 1 mps 758 mmHg 94%
    20:00 +26°C° 0 mm 1 mps 759 mmHg 95%
    21:00 +26°C° 0 mm 1 mps 759 mmHg 95%
    22:00 +26°C° 0 mm 1 mps 759 mmHg 95%
    23:00 +26°C° 0.2 mm 1 mps 759 mmHg 96%

    Day after tomorrow, 30 May, Saturday

    Time Temperature Precipitation Wind Pressure Humidity
    00:00 +26°C° 0.2 mm 1 mps 759 mmHg 96%
    01:00 +25°C° 0.2 mm 1 mps 758 mmHg 97%
    02:00 +25°C° 0.6 mm 1 mps 758 mmHg 97%
    03:00 +25°C° 0.6 mm 1 mps 758 mmHg 98%
    04:00 +25°C° 0.6 mm 1 mps 757 mmHg 98%
    05:00 +25°C° 0.8 mm 1 mps 758 mmHg 97%
    06:00 +25°C° 0.8 mm 1 mps 758 mmHg 97%
    07:00 +26°C° 0.8 mm 1 mps 758 mmHg 96%
    08:00 +27°C° 0.5 mm 1 mps 758 mmHg 90%
    09:00 +29°C° 0.5 mm 1 mps 759 mmHg 84%
    10:00 +30°C° 0.5 mm 1 mps 759 mmHg 78%
    11:00 +29°C° 2.3 mm 2 mps 759 mmHg 83%
    12:00 +28°C° 2.3 mm 3 mps 758 mmHg 88%
    13:00 +27°C° 2.3 mm 4 mps 758 mmHg 93%
    14:00 +27°C° 1.2 mm 5 mps 758 mmHg 93%
    15:00 +27°C° 1.2 mm 5 mps 758 mmHg 94%
    16:00 +26°C° 1.2 mm 5 mps 757 mmHg 94%
    17:00 +26°C° 0.2 mm 4 mps 758 mmHg 94%
    18:00 +26°C° 0.2 mm 3 mps 758 mmHg 94%
    19:00 +26°C° 0.2 mm 3 mps 758 mmHg 94%
    20:00 +26°C° 0.3 mm 2 mps 759 mmHg 94%
    21:00 +26°C° 0.3 mm 2 mps 759 mmHg 95%
    22:00 +26°C° 0.3 mm 2 mps 760 mmHg 96%
    23:00 +26°C° 0.2 mm 2 mps 759 mmHg 96%

    31 May, Sunday

    Time Temperature Precipitation Wind Pressure Humidity
    00:00 +26°C° 0.2 mm 2 mps 759 mmHg 97%
    01:00 +26°C° 0.2 mm 1 mps 759 mmHg 97%
    02:00 +25°C° 0.1 mm 1 mps 759 mmHg 97%
    03:00 +25°C° 0.1 mm 1 mps 758 mmHg 97%
    04:00 +25°C° 0.1 mm 1 mps 758 mmHg 97%
    05:00 +25°C° 0.1 mm 1 mps 758 mmHg 97%
    06:00 +26°C° 0.1 mm 1 mps 759 mmHg 96%
    07:00 +26°C° 0.1 mm 1 mps 759 mmHg 95%
    08:00 +27°C° 0.4 mm 1 mps 759 mmHg 89%
    09:00 +29°C° 0.4 mm 1 mps 760 mmHg 83%
    10:00 +30°C° 0.4 mm 1 mps 760 mmHg 77%
    11:00 +30°C° 0.9 mm 2 mps 760 mmHg 78%
    12:00 +31°C° 0.9 mm 2 mps 759 mmHg 78%
    13:00 +31°C° 0.9 mm 2 mps 759 mmHg 78%
    14:00 +30°C° 0.8 mm 2 mps 758 mmHg 81%
    15:00 +30°C° 0.8 mm 3 mps 758 mmHg 83%
    16:00 +29°C° 0.8 mm 3 mps 757 mmHg 86%
    17:00 +28°C° 0.3 mm 2 mps 757 mmHg 89%
    18:00 +27°C° 0.3 mm 2 mps 757 mmHg 92%
    19:00 +26°C° 0.3 mm 2 mps 757 mmHg 95%
    20:00 +26°C° 0 mm 2 mps 758 mmHg 95%
    21:00 +26°C° 0 mm 1 mps 759 mmHg 95%
    22:00 +26°C° 0 mm 1 mps 759 mmHg 95%
    23:00 +26°C° 0.1 mm 1 mps 759 mmHg 96%

    1 June, Monday

    Time Temperature Precipitation Wind Pressure Humidity
    00:00 +26°C° 0.1 mm 1 mps 759 mmHg 96%
    01:00 +26°C° 0.1 mm 1 mps 758 mmHg 96%
    02:00 +25°C° 0.3 mm 1 mps 758 mmHg 96%
    03:00 +25°C° 0.3 mm 1 mps 758 mmHg 97%
    04:00 +25°C° 0.3 mm 1 mps 758 mmHg 97%
    05:00 +25°C° 0.2 mm 1 mps 758 mmHg 97%
    06:00 +26°C° 0.2 mm 1 mps 758 mmHg 96%
    07:00 +26°C° 0.2 mm 1 mps 759 mmHg 96%
    08:00 +27°C° 0.2 mm 1 mps 759 mmHg 89%
    09:00 +27°C° 0.2 mm 0 mps 759 mmHg 82%
    10:00 +28°C° 0.2 mm 0 mps 760 mmHg 75%
    11:00 +30°C° 0.8 mm 1 mps 759 mmHg 77%
    12:00 +30°C° 0.8 mm 2 mps 759 mmHg 79%
    13:00 +31°C° 0.8 mm 3 mps 758 mmHg 81%
    14:00 +30°C° 1.2 mm 3 mps 758 mmHg 83%
    15:00 +30°C° 1.2 mm 2 mps 757 mmHg 85%
    16:00 +29°C° 1.2 mm 2 mps 757 mmHg 87%
    17:00 +28°C° 0.8 mm 2 mps 757 mmHg 90%
    18:00 +27°C° 0.8 mm 1 mps 757 mmHg 92%
    19:00 +27°C° 0.8 mm 1 mps 758 mmHg 94%
    20:00 +26°C° 0 mm 1 mps 758 mmHg 95%
    21:00 +26°C° 0 mm 1 mps 759 mmHg 95%
    22:00 +26°C° 0 mm 1 mps 759 mmHg 96%
    23:00 +26°C° 0.1 mm 1 mps 759 mmHg 96%

    2 June, Tuesday

    Time Temperature Precipitation Wind Pressure Humidity
    00:00 +26°C° 0.1 mm 1 mps 758 mmHg 97%
    01:00 +26°C° 0.1 mm 1 mps 758 mmHg 97%
    02:00 +25°C° 0.3 mm 1 mps 758 mmHg 97%
    03:00 +25°C° 0.3 mm 1 mps 757 mmHg 97%
    04:00 +25°C° 0.3 mm 1 mps 757 mmHg 98%
    05:00 +25°C° 0.5 mm 1 mps 757 mmHg 97%
    06:00 +26°C° 0.5 mm 1 mps 758 mmHg 96%
    07:00 +26°C° 0.5 mm 1 mps 758 mmHg 96%
    08:00 +27°C° 0.6 mm 1 mps 758 mmHg 92%
    09:00 +26°C° 0.6 mm 0 mps 758 mmHg 89%
    10:00 +27°C° 0.6 mm 0 mps 759 mmHg 86%
    11:00 +29°C° 1.1 mm 1 mps 758 mmHg 87%
    12:00 +29°C° 1.1 mm 2 mps 758 mmHg 88%
    13:00 +29°C° 1.1 mm 3 mps 758 mmHg 89%
    14:00 +28°C° 0.9 mm 3 mps 757 mmHg 91%
    15:00 +27°C° 0.9 mm 3 mps 757 mmHg 93%
    16:00 +27°C° 0.9 mm 2 mps 756 mmHg 95%
    17:00 +27°C° 0.1 mm 2 mps 757 mmHg 95%
    18:00 +26°C° 0.1 mm 2 mps 757 mmHg 96%
    19:00 +26°C° 0.1 mm 2 mps 758 mmHg 96%
    20:00 +26°C° 0.1 mm 1 mps 758 mmHg 96%
    21:00 +26°C° 0.1 mm 1 mps 758 mmHg 96%
    22:00 +26°C° 0.1 mm 1 mps 759 mmHg 96%
    23:00 +26°C° 0 mm 1 mps 758 mmHg 97%
    Show more